This demonstration page uses our WeatherBlox Daily Observations layout. Learn more.

Left ArrowRight Arrow

38.80484, -77.04692

Hourly Observations for May 1, 2019

Temp ( °F °C ) Dew Point ( °F °C ) Humidity (%) Winds ( mph kmh ) Pressure ( in mb ) Visibility ( mi km ) Precip ( " mm )
12:52 am 00:52 Cloudy 67 19.4 58 14.4 73 73 E 12 19 30.29 1026 10 16 N/A
1:39 am 01:39 Cloudy 64 17.8 56 13.3 75 75 ESE 14 22 30.30 1026 10 16 N/A
1:52 am 01:52 Cloudy 64 17.8 55 12.8 73 73 ESE 13 20 30.29 1026 10 16 N/A
2:52 am 02:52 Cloudy 63 17.2 54 12.2 73 73 E 15 24 30.29 1026 10 16 N/A
3:52 am 03:52 Cloudy 62 16.7 52 11.1 70 70 E 9 15 30.29 1026 10 16 N/A
4:52 am 04:52 Cloudy 61 16.1 51 10.6 70 70 E 12 19 30.30 1026 10 16 N/A
5:52 am 05:52 Cloudy 61 16.1 51 10.6 70 70 E 9 15 30.31 1026 10 16 N/A
6:52 am 06:52 Cloudy 60 15.6 52 11.1 75 75 E 12 19 30.33 1027 10 16 N/A
7:52 am 07:52 Cloudy 60 15.6 53 11.7 78 78 ENE 12 19 30.35 1028 10 16 N/A
8:04 am 08:04 Cloudy 60 15.6 53 11.7 78 78 ENE 12 19 30.35 1028 10 16 N/A
8:52 am 08:52 Cloudy 60 15.6 54 12.2 80 80 E 8 13 30.34 1027 10 16 N/A
9:52 am 09:52 Cloudy 60 15.6 54 12.2 80 80 E 9 15 30.34 1027 10 16 N/A
10:18 am 10:18 Cloudy 60 15.6 55 12.8 84 84 ENE 9 15 30.34 1027 10 16 N/A
10:52 am 10:52 Cloudy 60 15.6 55 12.8 84 84 E 7 11 30.34 1027 10 16 N/A
11:00 am 11:00 Cloudy 61 16.1 55 12.8 81 81 E 6 9 30.34 1027 10 16 N/A
11:52 am 11:52 Cloudy 62 16.7 55 12.8 78 78 ENE 7 11 30.33 1027 10 16 N/A
12:52 pm 12:52 Cloudy 62 16.7 56 13.3 80 80 ESE 6 9 30.30 1026 10 16 N/A
1:52 pm 13:52 Cloudy 64 17.8 56 13.3 75 75 E 5 7 30.29 1026 10 16 N/A
2:31 pm 14:31 Cloudy 65 18.3 57 13.9 76 76 E 5 7 30.28 1025 10 16 N/A
2:52 pm 14:52 Cloudy 66 18.9 57 13.9 73 73 SE 6 9 30.27 1025 10 16 N/A
3:52 pm 15:52 Cloudy 67 19.4 58 14.4 73 73 ESE 6 9 30.24 1024 10 16 N/A
4:52 pm 16:52 Cloudy 68 20 59 15 73 73 E 5 7 30.21 1023 10 16 N/A
5:52 pm 17:52 Mostly Cloudy 69 20.6 59 15 70 70 E 5 7 30.20 1023 10 16 N/A
6:07 pm 18:07 Partly Cloudy 69 20.6 60 15.6 73 73 E 6 9 30.20 1023 10 16 N/A
6:52 pm 18:52 Mostly Cloudy 69 20.6 60 15.6 73 73 SE 9 15 30.18 1022 10 16 N/A
7:52 pm 19:52 Mostly Cloudy 67 19.4 61 16.1 81 81 NE 6 9 30.17 1022 10 16 N/A
8:52 pm 20:52 Partly Cloudy 66 18.9 59 15 78 78 ENE 9 15 30.18 1022 10 16 N/A
8:58 pm 20:58 Mostly Cloudy 66 18.9 59 15 78 78 ENE 8 13 30.18 1022 10 16 N/A
9:09 pm 21:09 Mostly Cloudy 65 18.3 59 15 81 81 NE 10 17 30.18 1022 10 16 N/A
9:52 pm 21:52 Mostly Cloudy 63 17.2 58 14.4 84 84 ENE 10 17 30.17 1022 10 16 N/A
10:52 pm 22:52 Mostly Cloudy 62 16.7 57 13.9 84 84 NNE 7 11 30.18 1022 10 16 N/A
11:52 pm 23:52 Cloudy 61 16.1 57 13.9 87 87 ENE 6 9 30.16 1021 10 16 N/A

Powered by AerisWeather